Tracking 19177 objects as of 24-May-2018
HD Live streaming from Space Station
objects crossing your sky now

OPS 8314 (2)

Track OPS 8314 (2) now!
10-day predictions
OPS 8314 (2) is classified as:


NORAD ID: 6822
Int'l Code: 1972-079C
Perigee: 1,424.3 km
Apogee: 1,472.9 km
Inclination: 95.7 °
Period: 114.7 minutes
Semi major axis: 7819 km
RCS: 0.3198 m2 (medium)
Launch date: October 10, 1972
Source: United States (US)
Launch site: AIR FORCE WESTERN TEST RANGE (AFWTR)
aabbcc
Your satellite tracking list
Your tracking list is empty




NASA's NSSDC Master Catalog

Two Line Element Set (TLE):
1  6822U 72079C   18143.36315932 -.00000004 +00000-0 +47196-4 0  9998
2  6822 095.6561 053.3540 0031020 106.7201 011.3220 12.55527264089909
Source of the keplerian elements: AFSPC